Weather Roundup
Issued by NWS

Home | Current Version | Previous Version | Graphics & Text | Print | Product List | Glossary Off
Versions: 1 2 3 4 5 6 7 8 9 10 11 12 13 14 15 16 17 18 19 20 21 22 23 24 25 26 27 28 29 30 31 32 33 34 35 36 37 38 39 40 41 42 43 44 45 46 47 48 49 50

000
NZUS93 KARX 280759
HRRWXR

CURRENT HOURLY OBSERVATIONS ACROSS
MUCH OF THE UPPER MISSISSIPPI VALLEY
NATIONAL WEATHER SERVICE LA CROSSE WI
200 AM CST FRI NOV 28 2014


...SOUTHEAST MINNESOTA...


CITY           SKY/WX    TMP DP  RH WIND       PRES   REMARKS
ROCHESTER      LGT SNOW   9   5  84 SE16      30.18F FOG     WCI  -8
ROCHESTER/MAYO CLOUDY     9   5  82 SE12      30.20F WCI  -6
WINONA         LGT SNOW  12   9  85 S3        30.30R
AUSTIN         CLOUDY    10   5  79 SE10      30.16F WCI  -3
ALBERT LEA     CLOUDY    10   7  85 SE14G20   30.14F WCI  -5
DODGE CENTER   LGT SNOW  10   7  85 SE15      30.15F WCI  -6
PRESTON        LGT SNOW   9   5  85 SE8       30.22F WCI  -3
OWATONNA       CLOUDY    10   5  79 SE16      30.13F WCI  -7
FARIBAULT      LGT SNOW  10   7  85 SE12      30.15F WCI  -4
$$

...ELSEWHERE IN MINNESOTA...


CITY           SKY/WX    TMP DP  RH WIND       PRES   REMARKS
MINNEAPOLIS    LGT SNOW   7   4  87 E13       30.20F FOG     WCI  -9
INTNL FALLS    CLOUDY     2  -4  76 SE6       30.13F WCI  -9
DULUTH         CLOUDY     7  -4  60 S7        30.14F WCI  -5
RED WING       LGT SNOW  10   7  85 SE8       30.24F WCI  -1
REDWOOD FALLS  CLOUDY    10   3  73 SE20      30.06F WCI  -9
MANKATO        CLOUDY    10   3  72 SE20      30.10F WCI  -8
WORTHINGTON    CLOUDY    12   9  85 S15G22    29.97F WCI  -4
FAIRMONT       CLOUDY    12   3  67 SE18      30.05F WCI  -5
$$

...SOUTHWEST WISCONSIN...


CITY           SKY/WX    TMP DP  RH WIND       PRES   REMARKS
LA CROSSE      FLURRIES  14   5  67 SE10      30.29F WCI   1
PRAIRIE DU CHI FLURRIES  15   6  67 E5        30.32F WCI   7
BOSCOBEL       LGT SNOW  15   6  67 E3        30.33F
LONE ROCK      NOT AVBL
PLATTEVILLE    MOCLDY    14   6  70 CALM      30.32S
FORT MC COY    CLOUDY    11   5  75 CALM      30.31F
VIROQUA        CLOUDY    11   4  71 S6        30.26F WCI   2
WIS DELLS      NOT AVBL
$$

...ELSEWHERE IN WISCONSIN...


CITY           SKY/WX    TMP DP  RH WIND       PRES   REMARKS
MILWAUKEE      MOCLDY    15   7  70 W3        30.35S
MADISON        CLOUDY    14   5  67 VRB6      30.34R WCI   5
GREEN BAY      CLEAR      5   2  87 CALM      30.34S
EAU CLAIRE     LGT SNOW   9   2  73 SE5       30.27S WCI   1
BLACK RVR FLS  CLOUDY    10   2  73 CALM      30.30F
MEDFORD        CLOUDY     4   0  80 S3        30.23S
WAUSAU         CLOUDY     5   1  83 CALM      30.27S
WIS RAPIDS     CLOUDY     6   1  80 CALM      30.31F
MARSHFIELD     CLOUDY     7   1  76 S6        30.26F WCI  -3
RICE LAKE      LGT SNOW   8   3  79 SE6       30.26S WCI  -2
$$

...NORTHEAST IOWA...


CITY           SKY/WX    TMP DP  RH WIND       PRES   REMARKS
DECORAH        CLOUDY    10   7  85 S6        30.24F HAZE    WCI   1
MASON CITY     CLOUDY    12   3  67 SE17      30.15F WCI  -5
CHARLES CITY   CLOUDY    12   3  67 SE12      30.21F WCI  -2
OELWEIN        CLOUDY    12   5  73 SE14      30.24F WCI  -3
$$

...ELSEWHERE IN IOWA...


CITY           SKY/WX    TMP DP  RH WIND       PRES   REMARKS
DES MOINES     CLOUDY    18  10  71 SE15      30.16F WCI   4
IOWA CITY      CLOUDY    13   7  77 SE10      30.32F WCI   0
FORT DODGE     FAIR      14   5  67 SE9       30.09F WCI   2
$$

...NORTHERN ILLINOIS...


CITY           SKY/WX    TMP DP  RH WIND       PRES   REMARKS
CHICAGO-OHARE  MOCLDY    19  11  70 CALM      30.37R
CHICAGO-MIDWAY CLOUDY    21  11  65 SW5       30.38R WCI  15
MOLINE         FLURRIES  15   8  73 SE7       30.34F WCI   5
ROCKFORD       CLOUDY    14   5  67 CALM      30.38F
PEORIA         CLOUDY    18  10  71 E6        30.37F WCI  10
$$

NOTE: "FAIR" INDICATES FEW OR NO CLOUDS BELOW 12,000 FEET WITH NO
SIGNIFICANT WEATHER AND/OR OBSTRUCTIONS TO VISIBILITY. WIND
SPEEDS ARE IN MILES-PER-HOUR.



USA.gov is the U.S. government's official web portal to all federal, state and local government web resources and services.